This is the latest recevied weather packets stored in our database for station/object KC1OEK-13. If no packets are shown the sender has not sent any weather packets the latest 10 day(s).
| Time | Temp. | Humidity | Pressure | Rain* | Wind** | Luminosity | Snow |
|---|---|---|---|---|---|---|---|
| 1777833726 | 11.67° C | 37% | 1011.2 hPa | 0 mm | - | 901 W/m² | - |
| 1777833423 | 11.11° C | 37% | 1011.3 hPa | 0 mm | - | 874 W/m² | - |
| 1777833120 | 11.67° C | 39% | 1011.2 hPa | 0 mm | - | 271 W/m² | - |
| 1777832818 | 11.67° C | 38% | 1011.1 hPa | 0 mm | - | 322 W/m² | - |
| 1777832516 | 11.67° C | 37% | 1011.2 hPa | 0 mm | - | 910 W/m² | - |
| 1777832212 | 11.67° C | 37% | 1011 hPa | 0 mm | - | 493 W/m² | - |
| 1777831909 | 11.67° C | 38% | 1010.8 hPa | 0 mm | - | 422 W/m² | - |
| 1777831606 | 12.22° C | 37% | 1011.1 hPa | 0 mm | - | 351 W/m² | - |
| 1777831304 | 11.67° C | 37% | 1011 hPa | 0 mm | - | 849 W/m² | - |
| 1777831001 | 11.67° C | 37% | 1011 hPa | 0 mm | - | 302 W/m² | - |
| 1777830698 | 12.22° C | 37% | 1010.8 hPa | 0 mm | - | 1089 W/m² | - |
| 1777830394 | 11.67° C | 35% | 1010.9 hPa | 0 mm | - | 994 W/m² | - |
| 1777830092 | 11.11° C | 37% | 1011 hPa | 0 mm | - | 523 W/m² | - |
| 1777829787 | 10.56° C | 37% | 1011 hPa | 0 mm | - | 445 W/m² | - |
| 1777829483 | 11.11° C | 38% | 1011.2 hPa | 0 mm | - | 350 W/m² | - |
| 1777829180 | 10.56° C | 42% | 1011.1 hPa | 0 mm | - | 401 W/m² | - |
| 1777828878 | 10° C | 42% | 1011.1 hPa | 0 mm | - | 258 W/m² | - |
| 1777828574 | 10.56° C | 42% | 1011.1 hPa | 0 mm | - | 235 W/m² | - |
| 1777828272 | 11.11° C | 41% | 1011.3 hPa | 0 mm | - | 227 W/m² | - |
| 1777827969 | 10° C | 43% | 1011.1 hPa | 0 mm | - | 234 W/m² | - |
| 1777827665 | 11.11° C | 42% | 1011.3 hPa | 0 mm | - | 208 W/m² | - |
| 1777827363 | 11.11° C | 41% | 1011.2 hPa | 0 mm | - | 259 W/m² | - |
| 1777827058 | 10.56° C | 43% | 1011.4 hPa | 0 mm | - | 987 W/m² | - |
| 1777826755 | 10° C | 46% | 1011.4 hPa | 0 mm | - | 580 W/m² | - |
| 1777826453 | 10° C | 42% | 1011.5 hPa | 0 mm | - | 603 W/m² | - |
* Rain latest hour (hover to see other rain measurements)
** Current wind speed in m/s (hover to see current wind gust speed)